Regional Weather Roundup
Issued by NWS

Home | Current Version | Previous Version | Graphics & Text | Print | Product List | Glossary Off
Versions: 1 2 3 4 5 6 7 8 9 10 11 12 13 14 15 16 17 18 19 20 21 22 23 24 25 26 27 28 29 30 31 32 33 34 35 36 37 38 39 40 41 42 43 44 45 46 47 48 49 50

000
ASUS43 KTOP 240808
RWRKS

WEATHER ROUNDUP FOR KANSAS
NATIONAL WEATHER SERVICE GOODLAND KS
300 AM CDT THU APR 24 2014

NOTE:  "FAIR" INDICATES FEW OR NO CLOUDS BELOW 12,000 FEET WITH NO
SIGNIFICANT WEATHER AND/OR OBSTRUCTIONS TO VISIBILITY.

KSZ001>006-013>018-027>032-041>047-240900-
NORTHWEST KANSAS

CITY           SKY/WX    TMP DP  RH WIND       PRES   REMARKS
GOODLAND       CLOUDY    54  23  30 NW36G49   29.82F
HAYS           CLOUDY    54  52  94 N17G24    29.73R
HILL CITY      CLOUDY    55  48  77 N16       29.75R
RUSSELL        HVY RAIN  53  51  93 N24G32    29.68R FOG
$$

KSZ061>065-074>080-084>089-240900-
SOUTHWEST KANSAS

CITY           SKY/WX    TMP DP  RH WIND       PRES   REMARKS
DODGE CITY     LGT RAIN  50  45  83 N18       29.74R
ELKHART          N/A     53  28  38 N23         N/A
GARDEN CITY    CLOUDY    55  32  41 N25G36    29.77R
GREAT BEND     CLOUDY    55  50  82 N28G35    29.68R THUNDER
LIBERAL        MOCLDY    55  34  44 N31G39    29.77R
PRATT          PTCLDY    61  55  82 SW12      29.62R THUNDER
$$

KSZ066>073-081>083-090>101-240900-
SOUTHEAST KANSAS

CITY           SKY/WX    TMP DP  RH WIND       PRES   REMARKS
CHANUTE        CLOUDY    68  55  63 S18       29.64S
COFFEYVILLE    CLOUDY    70  55  59 S18G28    29.63F
HUTCHINSON     PTCLDY    66  57  72 S16G26    29.57S
MEDICINE LODGE   N/A     64  58  80 CALM      29.59R
NEWTON         MOCLDY    66  52  59 S23G30    29.60F
PARSONS        CLOUDY    69  55  60 SE10G21   29.65F
WICHITA INTL   MOCLDY    67  58  72 S20G30    29.57F
WICHITA JABRA  MOCLDY    67  58  72 S25G32    29.58S
WICHITA MCCONL MOCLDY    68  62  83 SE20G30   29.59F
WINFIELD       MOCLDY    66  59  78 S15       29.60F
$$

KSZ007>012-019>026-033>040-048>060-102>105-240900-
NORTHEAST KANSAS

CITY           SKY/WX    TMP DP  RH WIND       PRES   REMARKS
CONCORDIA      LGT RAIN  56  54  93 N14       29.65F
EMPORIA        CLOUDY    70  56  61 S29G37    29.57R
LAWRENCE       CLOUDY    69  51  52 S18G29    29.57S
MANHATTAN      CLOUDY    73  51  46 W14G25    29.61R
OLATHE IND     CLOUDY    67  48  50 SE24G32   29.60F
OLATHE EXE     CLOUDY    65  47  52 S22G32    29.60F
SALINA         CLOUDY    71  53  52 W15G21    29.61F THUNDER
TOPEKA BILLARD CLOUDY    72  54  53 S13       29.57R
TOPEKA FORBES  CLOUDY    71  54  54 S18G29    29.56R
$$



USA.gov is the U.S. government's official web portal to all federal, state and local government web resources and services.